Regional Weather Roundup
Issued by NWS Newport/Morehead, NC

Current Version | Previous Version | Text Only | Print | Product List | Glossary On
Versions: 1 2 3 4 5 6 7 8 9 10 11 12 13 14 15 16 17 18 19 20 21 22 23 24 25 26 27 28 29 30 31 32 33 34 35 36 37 38 39 40 41 42 43 44 45 46 47 48 49 50
000 ASUS42 KMHX 202010 RWRMHX WEATHER ROUNDUP FOR EASTERN NORTH CAROLINA NATIONAL WEATHER SERVICE NEWPORT/MOREHEAD CITY NC 400 PM EDT MON OCT 20 2014 NOTE: "FAIR" INDICATES FEW OR NO CLOUDS BELOW 12,000 FEET WITH NO SIGNIFICANT WEATHER AND/OR OBSTRUCTIONS TO VISIBILITY NCZ015>017-031-032-045>047-102-103-202100- NORTH COAST CITY SKY/WX TMP DP RH WIND PRES REMARKS EDENTON SUNNY 70 49 47 SW8G18 30.03F ELIZABETH CITY SUNNY 70 44 39 SW9 30.04F KITTY HAWK PTCLDY 69 50 51 S8 30.04S MANTEO SUNNY 67 52 58 S12 30.05F $$ NCZ045>047-081-094-103-104-202100- CENTRAL COAST CITY SKY/WX TMP DP RH WIND PRES REMARKS FRISCO SUNNY 69 52 54 CALM 30.06F SWANQUARTER N/A 70 N/A N/A SE9 30.00F $$ NCZ095-097-098-100-101-202100- SOUTHERN COAST CITY SKY/WX TMP DP RH WIND PRES REMARKS BEAUFORT SUNNY 70 54 56 SE8 30.04F CEDAR ISLAND N/A 68 N/A N/A E13 30.09S JACKSONVILLE SUNNY 72 54 53 S10 30.02F PINEY ISLAND PTCLDY 74 52 46 SE12 30.04F WILMINGTON MOSUNNY 71 55 56 SE12 30.02F $$ NCZ011>013-027>030-043-044-078>080-089-090>093-098-202100- COASTAL PLAIN CITY SKY/WX TMP DP RH WIND PRES REMARKS AHOSKIE SUNNY 68 48 49 S3 30.01F CLINTON MOSUNNY 73 54 51 SW6 30.01F ELIZABETHTOWN MOSUNNY 74 52 46 S10 30.01F GOLDSBORO MOSUNNY 73 53 49 SW8 29.99F GREENVILLE SUNNY 72 50 46 S9 30.03F HAVELOCK SUNNY 71 53 52 S12 30.05F KENANSVILLE MOSUNNY 72 50 46 S3 30.02F KINSTON NOT AVBL NEW BERN MOSUNNY 71 53 52 S6 30.04F RICHLANDS PTSUNNY 73 52 46 S8 30.02F ROCKY MOUNT SUNNY 71 46 40 S8 30.01F WASHINGTON MOSUNNY 70 49 48 SW7 30.03F WHITEVILLE MOSUNNY 75 54 48 S12 30.01F $$ AMZ130-135-150-152-154-156-158-170-250-252-270-ANZ085-086-088-633-658-670-202100- MARINE OBSERVATIONS STATION/POSITION TIME TEMP WIND PRES WAVE SWELL AIR SEA DIR/SP/G HT/PER HT/PER (UTC) (F) (DEG/KT/KT) (MB) (FT/S) (FT/S) CHESAPEAKE LIGHT 1900 63 190/ 17/ 19 1017.7 64 E VA BEACH 2000 66 69 190/ 14/ 16 1017.3 2/11 2/11 DUCK 2000 68 68 210/ 12/ 16 1016.4 2 E DUCK 2000 N/A 2/11 2/11 10 NE DUCK 2000 71 N/A 3/13 2/13 OREGON INLET 2000 65 68 190/ 6/ 8 1017.9 13E OREGON INLT 2000 73 N/A 3/12 2/12 HATTERAS CG 2000 68 69 120/ 3/ 5 1018.3 DIAMOND BUOY 2000 71 180/ 12/ 16 1018.0 3/12 3/12 17 S OCRACOKE 1900 VRB 4/ 6 1018.3 CAPE LOOKOUT 1900 68 100/ 3/ 4 1018.1 BEAUFORT LAB 2000 69 69 160/ 6/ 8 1016.8 30 SE NEW RIVER 2000 69 77 120/ 6/ 10 1017.2 2/11 2/11 5 SE WRIGHTSVLE 2000 67 75 170/ 8/ 10 N/A 225 S CAPE HAT 1854 72 80 90/ 8/ 12 1018.5 4/ 8 3/ 8 41 SE CHARLESTON 2000 74 80 110/ 8/ 10 1016.2 2/ 9 2/ 9 $$

USA.gov is the U.S. government's official web portal to all federal, state and local government web resources and services.